HS9DMC-13 Weather Reports


time (UTC)temp
F
wind
direction
speed
knots
gust
knots
rain 1hr
in
rain 24hr
in
rain mn
in
humidity
%
barometer
mb
20260502210250 81 312 0.0 0.0 0.00 0.00 0.00 79 1006.2
20260502205950 81 225 0.0 0.0 0.00 0.00 0.00 79 1006.2
20260502205650 81 270 0.0 0.0 0.00 0.00 0.00 78 1006.2
20260502205350 81 180 0.0 0.0 0.00 0.00 0.00 78 1006.1
20260502205050 81 180 0.0 0.0 0.00 0.00 0.00 78 1006.2
20260502204750 81 225 0.0 0.0 0.00 0.00 0.00 78 1006.1
20260502204150 81 231 0.0 0.0 0.00 0.00 0.00 78 1006.2
20260502203850 81 225 0.0 0.0 0.00 0.00 0.00 78 1006.3
20260502203549 81 135 0.0 0.0 0.00 0.00 0.00 78 1006.1
20260502203249 81 90 0.0 0.0 0.00 0.00 0.00 78 1006.0
20260502202949 81 58 0.0 0.0 0.00 0.00 0.00 78 1006.1
20260502202649 81 42 0.0 0.0 0.00 0.00 0.00 78 1006.1
20260502202349 81 135 0.0 0.0 0.00 0.00 0.00 78 1006.2
20260502202049 81 180 0.0 0.0 0.00 0.00 0.00 78 1006.1
20260502201750 81 180 0.0 0.0 0.00 0.00 0.00 78 1006.1
20260502201449 81 18 0.0 0.0 0.00 0.00 0.00 78 1006.0
20260502201149 81 42 0.0 0.0 0.00 0.00 0.00 79 1006.1
20260502200849 81 45 0.0 0.0 0.00 0.00 0.00 78 1006.1
20260502200548 82 315 0.0 0.0 0.00 0.00 0.00 78 1006.2
20260502200248 82 274 0.0 0.0 0.00 0.00 0.00 78 1006.1
20260502195950 82 225 0.0 0.0 0.00 0.00 0.00 78 1006.2
20260502195649 82 180 0.0 0.0 0.00 0.00 0.00 78 1006.3
20260502195348 82 217 0.0 0.0 0.00 0.00 0.00 78 1006.3
20260502195048 82 180 0.0 0.0 0.00 0.00 0.00 77 1006.3
20260502194748 82 225 0.0 0.0 0.00 0.00 0.00 77 1006.4
20260502194149 82 274 0.0 0.0 0.00 0.00 0.00 78 1006.5
20260502193847 82 135 0.0 0.0 0.00 0.00 0.00 77 1006.6
20260502193547 82 225 0.0 0.0 0.00 0.00 0.00 77 1006.6
20260502193247 82 182 0.0 0.0 0.00 0.00 0.00 77 1006.6
20260502192947 82 180 0.0 0.0 0.00 0.00 0.00 77 1006.7
20260502192647 82 225 0.0 0.0 0.00 0.00 0.00 77 1006.7
20260502192347 82 180 0.0 0.0 0.00 0.00 0.00 77 1006.8
20260502192047 82 180 0.0 0.0 0.00 0.00 0.00 77 1006.9
20260502191747 82 180 0.0 0.0 0.00 0.00 0.00 77 1006.9
20260502191447 82 180 0.0 0.0 0.00 0.00 0.00 77 1007.1
20260502191148 82 355 0.0 0.0 0.00 0.00 0.00 78 1007.1
20260502190846 82 315 0.0 0.0 0.00 0.00 0.00 77 1007.2
20260502190546 82 184 0.0 0.0 0.00 0.00 0.00 77 1007.1
20260502190246 82 182 0.0 0.0 0.00 0.00 0.00 77 1007.2
20260502185946 82 180 0.0 0.0 0.00 0.00 0.00 76 1007.3
20260502185647 82 193 0.0 0.9 0.00 0.00 0.00 77 1007.3
20260502185346 82 198 0.0 0.9 0.00 0.00 0.00 77 1007.3
20260502185046 82 166 0.0 1.7 0.00 0.00 0.00 76 1007.2
20260502184746 82 182 0.0 1.7 0.00 0.00 0.00 76 1007.2
20260502184146 82 207 0.0 0.0 0.00 0.00 0.00 76 1007.3
20260502183845 82 225 0.0 0.0 0.00 0.00 0.00 76 1007.5
20260502183545 82 180 0.0 0.0 0.00 0.00 0.00 76 1007.5
20260502183245 82 180 0.0 0.0 0.00 0.00 0.00 76 1007.6
20260502182945 82 180 0.0 0.0 0.00 0.00 0.00 76 1007.6
20260502182645 82 135 0.0 0.0 0.00 0.00 0.00 76 1007.6
20260502182345 82 225 0.0 0.0 0.00 0.00 0.00 76 1007.7
20260502182045 83 225 0.0 0.0 0.00 0.00 0.00 76 1007.8
20260502181745 83 180 0.0 0.0 0.00 0.00 0.00 76 1007.8
20260502181444 83 198 0.0 0.0 0.00 0.00 0.00 76 1007.9
20260502181144 83 225 0.0 0.0 0.00 0.00 0.00 76 1007.9
20260502180846 83 225 0.0 0.0 0.00 0.00 0.00 76 1007.9
20260502180544 83 225 0.0 0.0 0.00 0.00 0.00 76 1007.9
20260502180244 83 180 0.0 0.0 0.00 0.00 0.00 75 1008.0
20260502170243 83 225 0.0 1.7 0.00 0.00 0.00 74 1008.7
20260502164141 83 135 0.0 0.0 0.00 0.00 0.00 74 1008.8
20260502163841 83 45 0.0 0.0 0.00 0.00 0.00 74 1008.8
20260502163541 83 148 0.0 0.0 0.00 0.00 0.00 73 1008.7
20260502163241 83 319 0.0 0.0 0.00 0.00 0.00 74 1008.8
20260502162941 83 45 0.0 0.0 0.00 0.00 0.00 73 1008.9
20260502162641 83 289 0.0 0.0 0.00 0.00 0.00 74 1008.9
20260502162341 83 315 0.0 0.0 0.00 0.00 0.00 74 1008.9
20260502162042 83 0 0.0 0.0 0.00 0.00 0.00 73 1008.9
20260502161740 83 0 0.0 0.0 0.00 0.00 0.00 74 1008.9
20260502161440 83 290 0.0 0.0 0.00 0.00 0.00 73 1008.8
20260502161140 83 270 0.0 0.0 0.00 0.00 0.00 74 1009.0
20260502160840 83 290 0.0 0.0 0.00 0.00 0.00 73 1008.9
20260502160540 83 180 0.0 0.0 0.00 0.00 0.00 73 1009.0
20260502160240 83 180 0.0 0.9 0.00 0.00 0.00 73 1008.9
20260502152338 84 193 0.9 1.7 0.00 0.00 0.00 70 1008.9
20260502152043 84 180 0.0 0.0 0.00 0.00 0.00 70 1008.9
20260502151738 84 207 0.0 1.7 0.00 0.00 0.00 70 1008.9
20260502151438 85 135 0.0 2.6 0.00 0.00 0.00 70 1008.9
20260502151138 85 180 0.0 2.6 0.00 0.00 0.00 70 1008.9
20260502150838 85 198 0.9 2.6 0.00 0.00 0.00 70 1008.9
20260502150538 85 211 1.7 2.6 0.00 0.00 0.00 70 1008.7
20260502150238 85 175 0.0 1.7 0.00 0.00 0.00 70 1008.7
20260502130530 87 67 0.0 0.0 0.00 0.00 0.00 69 1007.4
20260502130229 87 92 0.0 1.7 0.00 0.00 0.00 69 1007.4
20260502123529 87 153 0.0 0.9 0.00 0.00 0.00 69 1007.1
20260502123228 87 231 0.0 4.3 0.00 0.00 0.00 69 1007.1
20260502122928 87 32 0.0 4.3 0.00 0.00 0.00 69 1007.0
20260502122629 87 337 0.0 0.9 0.00 0.00 0.00 69 1006.9
20260502122328 87 54 0.0 0.9 0.00 0.00 0.00 69 1006.8
20260502122028 86 22 0.0 1.7 0.00 0.00 0.00 69 1006.8
20260502121728 86 0 0.0 0.0 0.00 0.00 0.00 69 1006.7
20260502121428 86 30 0.0 2.6 0.00 0.00 0.00 70 1006.7
20260502121129 86 31 0.9 1.7 0.00 0.00 0.00 69 1006.6
20260502120827 86 11 0.0 0.9 0.00 0.00 0.00 69 1006.5
20260502120527 86 67 0.0 0.9 0.00 0.00 0.00 69 1006.4
20260502120229 86 256 0.0 3.5 0.00 0.00 0.00 69 1006.3
20260502115927 87 38 1.7 3.5 0.00 0.00 0.00 69 1006.1
20260502115627 87 57 1.7 2.6 0.00 0.00 0.00 69 1006.1
20260502115327 87 49 0.9 1.7 0.00 0.00 0.00 68 1006.0
20260502114727 87 45 1.7 2.6 0.00 0.00 0.00 68 1005.9
20260502114127 87 0 0.9 3.5 0.00 0.00 0.00 68 1005.8
20260502113828 87 357 0.9 3.5 0.00 0.00 0.00 68 1005.7
20260502113528 87 54 1.7 3.5 0.00 0.00 0.00 69 1005.8
20260502113226 87 10 1.7 3.5 0.00 0.00 0.00 68 1005.8
20260502112926 87 42 2.6 2.6 0.00 0.00 0.00 68 1005.8
20260502112627 87 105 0.0 2.6 0.00 0.00 0.00 68 1005.7
20260502112326 87 51 0.0 3.5 0.00 0.00 0.00 68 1005.8
20260502112026 87 45 2.6 3.5 0.00 0.00 0.00 68 1005.7
20260502111726 87 95 0.0 2.6 0.00 0.00 0.00 68 1005.6
20260502111426 87 32 0.9 2.6 0.00 0.00 0.00 67 1005.7
20260502111126 87 138 0.9 4.3 0.00 0.00 0.00 67 1005.7
20260502110825 87 70 2.6 3.5 0.00 0.00 0.00 67 1005.7
20260502110525 87 353 0.0 4.3 0.00 0.00 0.00 67 1005.7
20260502110405 87 40 4.3 4.3 0.00 0.00 0.00 67 1005.7
20260502110205 87 27 0.0 5.2 0.00 0.00 0.00 66 1005.7
20260502105905 87 47 2.6 5.2 0.00 0.00 0.00 67 1005.7
20260502105605 87 58 1.7 3.5 0.00 0.00 0.00 68 1005.7
20260502105306 87 27 2.6 4.3 0.00 0.00 0.00 67 1005.6
20260502105005 87 31 1.7 6.1 0.00 0.00 0.00 67 1005.6
20260502104445 88 40 0.9 3.5 0.00 0.00 0.00 66 1005.5
20260502104145 88 51 2.6 4.3 0.00 0.00 0.00 66 1005.5
20260502103844 88 67 3.5 5.2 0.00 0.00 0.00 66 1005.5
20260502103544 88 56 4.3 5.2 0.00 0.00 0.00 66 1005.5
20260502103244 88 56 2.6 5.2 0.00 0.00 0.00 66 1005.6
20260502102944 88 0 1.7 4.3 0.00 0.00 0.00 66 1005.5
20260502102644 88 45 2.6 4.3 0.00 0.00 0.00 66 1005.6
20260502102344 88 47 0.9 4.3 0.00 0.00 0.00 65 1005.4
20260502102044 88 351 1.7 3.5 0.00 0.00 0.00 65 1005.4
20260502101744 88 0 2.6 4.3 0.00 0.00 0.00 64 1005.4
20260502101443 88 54 4.3 4.3 0.00 0.00 0.00 64 1005.5
20260502101143 88 50 2.6 4.3 0.00 0.00 0.00 64 1005.4
20260502100843 89 67 3.5 5.2 0.00 0.00 0.00 64 1005.4
20260502100543 89 20 2.6 6.1 0.00 0.00 0.00 63 1005.1
20260502100243 89 56 5.2 6.1 0.00 0.00 0.00 63 1005.2
20260502091451 91 38 2.6 5.2 0.00 0.00 0.00 59 1004.9
20260502091153 92 2 2.6 4.3 0.00 0.00 0.00 59 1004.9
20260502090851 92 352 2.6 5.2 0.00 0.00 0.00 59 1005.0
20260502090551 92 9 2.6 6.1 0.00 0.00 0.00 59 1005.1
20260502090251 92 5 1.7 6.1 0.00 0.00 0.00 58 1005.0
20260502071321 94 40 7.8 10.4 0.00 0.00 0.00 55 1005.9
20260502071221 94 20 3.5 10.4 0.00 0.00 0.00 55 1005.8
20260502071022 94 45 8.7 8.7 0.00 0.00 0.00 56 1005.9
20260502070751 94 33 3.5 9.6 0.00 0.00 0.00 55 1006.0
20260502070701 94 56 8.7 9.6 0.00 0.00 0.00 55 1006.0
20260502070511 94 42 3.5 9.6 0.00 0.00 0.00 55 1006.0
20260502070351 94 9 9.6 10.4 0.00 0.00 0.00 54 1005.9
20260502070021 94 9 10.4 10.4 0.00 0.00 0.00 55 1006.1
20260502065921 94 31 3.5 9.6 0.00 0.00 0.00 55 1006.1
20260502065901 94 351 8.7 9.6 0.00 0.00 0.00 55 1006.1
20260502065801 94 31 2.6 9.6 0.00 0.00 0.00 55 1006.1
20260502065500 94 2 7.0 7.8 0.00 0.00 0.00 56 1006.2
20260502065421 94 357 2.6 7.8 0.00 0.00 0.00 56 1006.2
20260502065330 94 15 7.8 7.8 0.00 0.00 0.00 56 1006.2
20260502065230 93 32 1.7 7.8 0.00 0.00 0.00 56 1006.2
20260502065101 93 6 6.1 9.6 0.00 0.00 0.00 55 1006.2
20260502065020 93 6 1.7 9.6 0.00 0.00 0.00 56 1006.1
20260502064720 93 11 4.3 9.6 0.00 0.00 0.00 55 1006.2
20260502064430 93 318 5.2 11.3 0.00 0.00 0.00 55 1006.2
20260502064130 93 35 5.2 11.3 0.00 0.00 0.00 56 1006.3
20260502064110 93 49 11.3 11.3 0.00 0.00 0.00 56 1006.3
20260502063950 93 45 4.3 9.6 0.00 0.00 0.00 56 1006.2
20260502063920 93 42 9.6 9.6 0.00 0.00 0.00 55 1006.3
20260502063840 93 45 2.6 8.7 0.00 0.00 0.00 56 1006.3
20260502063630 93 63 7.8 8.7 0.00 0.00 0.00 56 1006.4
20260502063330 92 42 6.1 7.8 0.00 0.00 0.00 56 1006.5
20260502063310 92 32 1.7 7.8 0.00 0.00 0.00 57 1006.5
20260502063220 92 4 7.0 7.8 0.00 0.00 0.00 57 1006.5
20260502063050 92 0 2.6 7.8 0.00 0.00 0.00 56 1006.6
20260502062750 92 12 2.6 7.8 0.00 0.00 0.00 55 1006.7
20260502062700 93 42 7.8 7.8 0.00 0.00 0.00 55 1006.7
20260502062432 93 45 3.5 7.8 0.00 0.00 0.00 55 1006.9
20260502062130 93 56 5.2 9.6 0.00 0.00 0.00 55 1007.0
20260502061829 93 45 3.5 9.6 0.00 0.00 0.00 55 1007.0
20260502061809 93 72 9.6 9.6 0.00 0.00 0.00 55 1007.0
20260502061549 93 60 4.3 7.0 0.00 0.00 0.00 55 1007.2
20260502061250 93 38 5.2 7.0 0.00 0.00 0.00 53 1007.1
20260502060649 94 13 5.2 8.7 0.00 0.00 0.00 52 1007.3
20260502060349 95 45 4.3 14.8 0.00 0.00 0.00 51 1007.2
20260502060049 95 40 7.0 14.8 0.00 0.00 0.00 50 1007.1
20260502060019 95 42 14.8 14.8 0.00 0.00 0.00 50 1007.1
20260502055849 95 40 7.8 7.8 0.00 0.00 0.00 50 1007.1
20260502055728 95 35 3.5 7.8 0.00 0.00 0.00 50 1007.2
20260502055428 96 54 2.6 7.8 0.00 0.00 0.00 48 1007.0
20260502055328 96 45 7.8 7.8 0.00 0.00 0.00 48 1007.0
20260502055038 96 22 3.5 7.8 0.00 0.00 0.00 48 1007.1
20260502054738 96 54 4.3 7.8 0.00 0.00 0.00 48 1007.1
20260502054439 96 58 2.6 7.8 0.00 0.00 0.00 47 1007.1
20260502054358 96 49 7.8 7.8 0.00 0.00 0.00 47 1007.1
20260502054138 96 16 2.6 7.0 0.00 0.00 0.00 48 1007.1
20260502053838 96 60 4.3 5.2 0.00 0.00 0.00 47 1007.2
20260502053538 96 56 4.3 5.2 0.00 0.00 0.00 49 1007.3
20260502053238 96 40 2.6 5.2 0.00 0.00 0.00 49 1007.3
20260502052938 96 42 4.3 8.7 0.00 0.00 0.00 48 1007.3
20260502052638 96 85 5.2 5.2 0.00 0.00 0.00 50 1007.3
20260502052227 96 24 5.2 5.2 0.00 0.00 0.00 52 1007.4